Change the Weather History Date:

Thursday, January 24, 2013

  Actual Average Record
Temperature  
Mean Temperature 14 °F -  
Max Temperature 23 °F 41 °F 61 °F (1942)
Min Temperature 6 °F 19 °F -12 °F (1961)
Degree Days  
Heating Degree Days 50    
Moisture  
Dew Point 3 °F    
Average Humidity 68    
Maximum Humidity 100    
Minimum Humidity 33    
Precipitation  
Precipitation 0.00 in - - ()
Sea Level Pressure  
Sea Level Pressure 30.24 in    
Wind  
Wind Speed 3 mph (NW)    
Max Wind Speed 18 mph    
Max Gust Speed 29 mph    
Visibility 10 miles    
Events      
Averages and records for this station are not official NWS values.
T = Trace of Precipitation, MM = Missing Value Source: NWS Daily Summary

Daily Weather History Graph

Daily Weather History Graph

Search for Another Location

Airport or City:

Trip Planner

Search our weather history database for the weather conditions in past years. The results will help you decide how hot, cold, wet, or windy it might be!

Date:

Astronomy

Jan. 24, 2013 Rise Set
Actual Time 7:14 AM EST 5:05 PM EST
Civil Twilight 6:44 AM EST 5:35 PM EST
Nautical Twilight 6:11 AM EST 6:08 PM EST
Astronomical Twilight 5:39 AM EST 6:40 PM EST
Moon 3:05 PM EST (1/24) 5:10 AM EST (1/24)
Length of Visible Light 10h 50m
Length of Day
9h 51m
Waxing Gibbous, 94% of the Moon is Illuminated
Jan 24
Waxing Gibbous
Jan 26
Full
Feb 3
Last Quarter
Feb 10
New
Feb 17
First Quarter

Hourly Weather History & Observations

Time (EST) Temp. Windchill Dew Point Humidity Pressure Visibility Wind Dir Wind Speed Gust Speed Precip Events Conditions
12:15 AM 10.4 °F - 6.8 °F 85% 30.17 in 10.0 mi Calm Calm - N/A   Overcast
12:35 AM 10.4 °F - 8.6 °F 92% 30.16 in 10.0 mi Calm Calm - N/A   Overcast
12:55 AM 10.4 °F - 8.6 °F 92% 30.16 in 10.0 mi Calm Calm - N/A   Overcast
1:15 AM 10.4 °F - 6.8 °F 85% 30.15 in 10.0 mi Calm Calm - N/A   Mostly Cloudy
1:35 AM 8.6 °F - 6.8 °F 92% 30.14 in 10.0 mi Calm Calm - N/A   Clear
1:55 AM 6.8 °F -0.1 °F 5.0 °F 92% 30.14 in 10.0 mi NE 3.5 mph - N/A   Clear
2:15 AM 8.6 °F - 6.8 °F 92% 30.14 in 10.0 mi Calm Calm - N/A   Clear
2:35 AM 8.6 °F - 6.8 °F 92% 30.14 in 10.0 mi Calm Calm - N/A   Clear
2:55 AM 6.8 °F - 6.8 °F 100% 30.13 in 10.0 mi Calm Calm - N/A   Clear
3:15 AM 6.8 °F - 5.0 °F 92% 30.13 in 10.0 mi Calm Calm - N/A   Clear
3:35 AM 6.8 °F - 5.0 °F 92% 30.13 in 10.0 mi Calm Calm - N/A   Clear
3:55 AM 6.8 °F - 6.8 °F 100% 30.13 in 10.0 mi Calm Calm - N/A   Mostly Cloudy
4:15 AM 8.6 °F - 6.8 °F 92% 30.13 in 10.0 mi Calm Calm - N/A   Overcast
4:35 AM 8.6 °F - 6.8 °F 92% 30.13 in 10.0 mi Calm Calm - N/A   Overcast
4:55 AM 8.6 °F - 6.8 °F 92% 30.14 in 10.0 mi Calm Calm - N/A   Overcast
5:15 AM 10.4 °F - 6.8 °F 85% 30.14 in 10.0 mi Calm Calm - N/A   Overcast
5:35 AM 10.4 °F - 6.8 °F 85% 30.15 in 10.0 mi Calm Calm - N/A   Overcast
6:45 AM 10.4 °F - 6.8 °F 85% 30.18 in 10.0 mi Calm Calm - N/A   Mostly Cloudy
7:45 AM 8.6 °F - 5.0 °F 85% 30.20 in 10.0 mi Calm Calm - N/A   Partly Cloudy
8:45 AM 14.0 °F 3.9 °F 6.8 °F 73% 30.21 in 10.0 mi North 6.9 mph - N/A   Clear
9:45 AM 17.6 °F 5.0 °F 3.2 °F 53% 30.24 in 10.0 mi North 11.5 mph 16.1 mph N/A   Clear
10:45 AM 21.2 °F 8.9 °F 3.2 °F 46% 30.25 in 10.0 mi NW 12.7 mph 21.9 mph N/A   Clear
11:45 AM 21.2 °F 8.9 °F -2.2 °F 36% 30.25 in 10.0 mi North 12.7 mph 24.2 mph N/A   Clear
12:45 PM 23.0 °F 13.1 °F -2.2 °F 33% 30.25 in 10.0 mi NNW 9.2 mph 25.3 mph N/A   Scattered Clouds
2:45 PM 23.0 °F 10.1 °F -2.2 °F 33% 30.28 in 10.0 mi NW 15.0 mph 27.6 mph N/A   Scattered Clouds
3:45 PM 21.2 °F 6.4 °F -0.4 °F 39% 30.30 in 15.0 mi NNW 18.4 mph 28.8 mph N/A   Partly Cloudy
4:45 PM 21.2 °F 9.5 °F -0.4 °F 39% 30.32 in 10.0 mi NNW 11.5 mph 23.0 mph N/A   Partly Cloudy
5:45 PM 19.4 °F 7.2 °F -0.4 °F 42% 30.16 in 10.0 mi WNW 11.5 mph 19.6 mph N/A   Clear
6:45 PM 17.6 °F 5.7 °F -2.2 °F 42% 30.38 in 10.0 mi NW 10.4 mph 18.4 mph N/A   Clear
7:45 PM 17.6 °F 3.2 °F -0.4 °F 45% 30.40 in 10.0 mi NW 15.0 mph 21.9 mph N/A   Clear
8:45 PM 15.8 °F 4.2 °F 1.4 °F 53% 30.40 in 10.0 mi NNW 9.2 mph 20.7 mph N/A   Clear
9:45 PM 15.8 °F 3.4 °F 1.4 °F 53% 30.41 in 10.0 mi NNW 10.4 mph 19.6 mph N/A   Clear
9:55 PM 15.8 °F 6.1 °F 1.4 °F 53% 30.40 in 10.0 mi WNW 6.9 mph - N/A   Clear
10:15 PM 15.8 °F 3.4 °F 1.4 °F 53% 30.40 in 10.0 mi WNW 10.4 mph 16.1 mph N/A   Clear
10:35 PM 15.8 °F 4.2 °F -0.4 °F 49% 30.41 in 10.0 mi NW 9.2 mph 16.1 mph N/A   Clear
10:55 PM 15.8 °F 5.1 °F 1.4 °F 53% 30.41 in 10.0 mi WNW 8.1 mph - N/A   Clear
11:15 PM 15.8 °F 6.1 °F -0.4 °F 49% 30.42 in 10.0 mi WNW 6.9 mph 16.1 mph N/A   Clear
11:35 PM 15.8 °F 3.4 °F -0.4 °F 49% 30.42 in 10.0 mi NW 10.4 mph - N/A   Clear
11:55 PM 14.0 °F 2.0 °F -0.4 °F 53% 30.42 in 10.0 mi WNW 9.2 mph - N/A   Clear